Location: Newark
(47.5008°N, 9.7480°E)
Time: 19:09:04
(UTC+00:00)

ISS - Visible Passes

Search period start: 19 July 2019 00:00
Search period end: 29 July 2019 00:00
Orbit: 409 x 418 km, 51.6° (Epoch: 20 July)

Date Brightness Start Highest point End Pass type
(mag) Time Alt. Az. Time Alt. Az. Time Alt. Az.
19 Jul -3.0 00:17:52 10° WNW 00:21:09 51° NNE 00:24:24 10° E visible
19 Jul -3.5 01:54:38 10° WNW 01:57:49 42° SSW 02:00:57 10° SE visible
19 Jul -3.8 20:14:35 10° SW 20:17:53 59° SSE 20:21:11 10° ENE visible
19 Jul -2.6 21:51:26 10° W 21:54:40 44° N 21:57:53 10° ENE visible
19 Jul -2.6 23:28:33 10° WNW 23:31:46 43° N 23:34:57 10° E visible
20 Jul -3.9 01:05:16 10° WNW 01:08:35 66° SSW 01:09:06 54° SSE visible
20 Jul -1.6 02:45:52 11° SSW 02:45:52 11° SSW 02:46:04 10° SSW visible
20 Jul -3.0 21:01:59 10° W 21:05:17 54° NNW 21:08:34 10° ENE visible
20 Jul -2.4 22:39:10 10° WNW 22:42:20 39° N 22:45:17 11° ENE visible
21 Jul -2.6 00:15:56 10° WNW 00:18:01 35° WNW 00:18:01 35° WNW visible
21 Jul -3.5 20:12:34 10° WSW 20:15:55 72° NNW 20:19:15 10° ENE visible
21 Jul -2.3 21:49:44 10° WNW 21:52:54 38° N 21:56:04 10° ENE visible
21 Jul -3.1 23:26:37 10° WNW 23:29:24 52° NNW 23:29:24 52° NNW visible
22 Jul -2.4 21:00:16 10° W 21:03:27 41° N 21:06:39 10° ENE visible
22 Jul -2.9 22:37:17 10° WNW 22:40:32 48° NNE 22:41:10 41° NE visible
23 Jul -2.7 20:10:46 10° W 20:14:01 47° NNW 20:17:15 10° ENE visible
23 Jul -2.6 21:47:53 10° WNW 21:51:07 42° N 21:53:06 19° ENE visible
23 Jul -1.7 23:24:38 10° WNW 23:25:55 21° WNW 23:25:55 21° WNW visible
24 Jul -2.4 20:58:27 10° WNW 21:01:38 39° N 21:04:47 10° ENE visible
24 Jul -3.1 22:35:15 10° WNW 22:37:56 53° NW 22:37:56 53° NW visible
25 Jul -2.4 20:08:58 10° WNW 20:12:09 39° N 20:15:19 10° ENE visible
25 Jul -3.3 21:45:53 10° WNW 21:49:12 57° NNE 21:50:01 42° ENE visible
25 Jul -0.9 23:22:43 10° WNW 23:22:49 11° WNW 23:22:49 11° WNW visible
26 Jul -2.8 20:56:30 10° WNW 20:59:44 46° NNE 21:02:07 16° E visible
26 Jul -2.1 22:33:13 10° WNW 22:34:56 26° W 22:34:56 26° W visible
27 Jul -2.6 20:07:03 10° WNW 20:10:15 40° N 20:13:26 10° E visible
27 Jul -3.9 21:43:47 10° WNW 21:47:04 81° WSW 21:47:04 81° WSW visible
28 Jul -3.6 20:54:23 10° WNW 20:57:44 71° NNE 20:59:14 29° E visible
28 Jul -1.2 22:31:24 10° W 22:32:03 14° W 22:32:03 14° W visible
